Hourly Data Report for September 30, 2017

All times are specified in Local Standard Time (LST). Add 1 hour to adjust for Daylight Saving Time where and when it is observed.

ARCTIC BAY CS
NUNAVUT

72°59'34.000" N
85°00'44.000" W
10.00 m
2400404
71592
XAT

Download Data

Hourly Data (September 2017)
Hourly Data Report for September 30, 2017
Temp Definition
°C
Dew Point Temp Definition
°C
Rel Hum Definition
%
Wind Dir Definition
10's deg

Wind Spd Definition
km/h
Visibility Definition
km
Stn Press Definition
kPa
Hmdx Definition


Wind Chill Definition


Weather Definition


TIME
00:00 -4.2 -7.1 80 11 6   100.73   -7 LegendNANA
01:00 -4.1 -6.9 81 7 10   100.77   -8 LegendNANA
02:00 -3.3 -6.1 81 1 5   100.80   -5 LegendNANA
03:00 -5.2 -7.9 81 7 13   100.86   -10 LegendNANA
04:00 -5.4 -8.4 79 6 15   100.90   -11 LegendNANA
05:00 -5.0 -8.5 77 10 8   100.95   -9 LegendNANA
06:00 -5.8 -9.0 78 7 17   100.98   -12 LegendNANA
07:00 -6.3 -9.4 79 7 22   101.00   -14 LegendNANA
08:00 -5.1 -8.2 79 6 12   101.04   -10 LegendNANA
09:00 -5.5 -8.8 77 6 10   101.07   -10 LegendNANA
10:00 -4.1 -6.9 81 34 3   101.08   -5 LegendNANA
11:00 -2.1 -5.5 78 33 19   101.09   -8 LegendNANA
12:00 -1.2 -5.0 75 27 6   101.11   -3 LegendNANA
13:00 -2.1 -5.3 78 34 15   101.14   -7 LegendNANA
14:00 -1.9 -5.0 80 35 11   101.16   -6 LegendNANA
15:00 -3.4 -5.5 86 36 24   101.16   -10 LegendNANA
16:00 -2.6 -5.4 81 33 10   101.17   -6 LegendNANA
17:00 -4.2 -6.7 83 33 4   101.17   -6 LegendNANA
18:00 -2.7 -4.6 86 32 12   101.19   -7 LegendNANA
19:00 -5.6 -8.3 81 6 11   101.19   -10 LegendNANA
20:00 -5.3 -7.8 83 6 10   101.18   -10 LegendNANA
21:00 -4.6 -6.9 84 36 2   101.18   -5 LegendNANA
22:00 -8.0 -9.9 86 35 13   101.17   -14 LegendNANA
23:00 -6.7 -9.0 84 7 8   101.17   -11 LegendNANA

Notes on Data Quality.

Legend

  • E = Estimated
  • M = Missing
  • NA = Not Available
  • ‡ = Partner data that is not subject to review by the National Climate Archives
Date modified: